Location: Crocus Hill
(18.2167°N, 63.0667°W)
Time: 13:49:41
(UTC+00:00)

Cosmos 44 Rocket - Pass Details

Date: 26 January 2020
Orbit: 660 x 730 km, 65.1° (Epoch: 22 February)

Event Time Altitude Azimuth Distance (km) Brightness Sun altitude
Exits shadow 09:17:27 51° 295° (WNW) 846 3.3 -21.1°
Maximum altitude 09:18:20 62° 248° (WSW) 763 3.2 -20.9°
Drops below altitude 10° 09:23:07 10° 168° (SSE) 2,133 6.1 -19.8°
Sets 09:25:30 0° 165° (SSE) 3,060 7.0 -19.3°
